Home > Time Zones > World Clock > Weather > Russia > Perm > Past weeks

Flag for Russia Weather past 2 weeks in Perm, Russia

25 °F

Snow. Ice fog.

Feels Like: 16 °F
Forecast: 31 / 39 °F
Wind: 8 mph from Southwest

Location: Perm'/Bolshoe Savino

Current Time: Oct 13, 2015 at 10:22:51 PM

Latest Report: Oct 13, 2015 at 9:30 PM

Visibility: 1 mi

Pressure: 30.04 "Hg

Humidity: 100%

Dew point: 25 °F

Location of PermLocation

Historic Weather in Perm — Graph


Perm temperature yesterday

Maximum temperature yesterday: 30 °F (at 8:30 PM)
Minimum temperature yesterday: 14 °F (at 8:30 AM)
Average temperature yesterday: 24 °F

Past Weeks' High & Low Weather Summary

High73 °F (Sep 29, 4:00 PM)100% (Sep 30, 9:30 PM)30.18 "Hg (Sep 30, 9:30 PM)
Low14 °F (Oct 12, 8:30 AM)41% (Sep 29, 4:00 PM)28.71 "Hg (Oct 3, 1:30 PM)
Average37 °F84%29.71 "Hg
* Reported Sep 28 9:00 PM — Oct 13 9:00 PM, Perm, Weather by CustomWeather, © 2015

Note: Actual official high and low records may vary slightly from our data, if they occured in-between our weather recording intervals... More about our weather records


Perm weather history for previous 24 hours

Time TempWeatherWind HumidityBarometerVisibility
9:00 PM
Tue, Oct 13
25 °FSnow. Mostly cloudy.8 mph93%30.04 "Hg1 mi
8:30 PM25 °FLight snow. Mostly cloudy.8 mph93%30.07 "Hg2 mi
8:00 PM23 °FLight snow. Mostly cloudy.8 mph93%30.07 "HgN/A
7:30 PM23 °FLight snow. Mostly cloudy.6 mph86%30.09 "Hg3 mi
7:00 PM23 °FMore clouds than sun.6 mph80%30.09 "HgN/A
6:30 PM21 °FPartly sunny.3 mph80%30.09 "HgN/A
6:00 PM23 °FPartly sunny.3 mph80%30.09 "HgN/A
5:30 PM25 °FBroken clouds.6 mph74%30.09 "HgN/A
5:00 PM25 °FPartly sunny.3 mph74%30.09 "HgN/A
4:30 PM25 °FPartly sunny.8 mph74%30.09 "HgN/A
4:00 PM23 °FPartly sunny.8 mph80%30.09 "HgN/A
3:30 PM23 °FPartly sunny.10 mph80%30.09 "HgN/A
3:00 PM23 °FLight snow. Mostly cloudy.10 mph80%30.09 "HgN/A
2:30 PM23 °FLight snow. Mostly cloudy.8 mph80%30.09 "HgN/A
2:00 PM23 °FLight snow. Mostly cloudy.8 mph80%30.09 "HgN/A
1:30 PM23 °FLight snow. Mostly cloudy.6 mph80%30.07 "Hg4 mi
1:00 PM23 °FLight snow. Mostly cloudy.8 mph80%30.07 "HgN/A
12:30 PM23 °FLight snow. Mostly cloudy.8 mph80%30.07 "HgN/A
12:00 PM23 °FLight snow. Mostly cloudy.6 mph80%30.07 "Hg3 mi
11:30 AM23 °FLight snow. Mostly cloudy.8 mph80%30.07 "Hg3 mi
11:00 AM23 °FLight snow. Overcast.8 mph80%30.04 "Hg3 mi
10:30 AM23 °FLight snow. Overcast.8 mph80%30.04 "HgN/A
10:00 AM23 °FLight snow. Overcast.6 mph80%30.04 "HgN/A
9:30 AM23 °FLight snow. Overcast.8 mph80%30.04 "HgN/A
9:00 AM23 °FLight snow. Overcast.8 mph80%30.01 "HgN/A
8:30 AM23 °FLight snow. Overcast.8 mph86%30.01 "HgN/A
7:30 AM23 °FPassing clouds.6 mph86%29.98 "HgN/A
7:00 AM23 °FPartly cloudy.8 mph86%29.98 "HgN/A
6:30 AM23 °FPartly cloudy.8 mph80%29.98 "HgN/A
6:00 AM23 °FPartly cloudy.8 mph86%29.95 "HgN/A
5:30 AM23 °FPassing clouds.8 mph86%29.95 "HgN/A
5:00 AM25 °FSnow flurries. Passing clouds.8 mph93%29.92 "HgN/A
4:30 AM27 °FSnow flurries. Passing clouds.6 mph93%29.89 "HgN/A
4:00 AM25 °FSnow flurries. Passing clouds.6 mph93%29.89 "HgN/A
3:30 AM25 °FPassing clouds.8 mph93%29.89 "HgN/A
3:00 AM27 °FPassing clouds.8 mph86%29.86 "HgN/A
2:30 AM27 °FPassing clouds.10 mph93%29.86 "HgN/A
2:00 AM28 °FPartly cloudy.8 mph93%29.86 "HgN/A
1:30 AM30 °FPassing clouds.10 mph93%29.86 "HgN/A
1:00 AM30 °FSnow flurries. Mostly cloudy.10 mph93%29.86 "Hg2 mi
12:30 AM30 °FPassing clouds.8 mph93%29.83 "HgN/A
12:00 AM30 °FPassing clouds.10 mph93%29.83 "HgN/A
11:30 PM
Mon, Oct 12
30 °FLight snow. Mostly cloudy.10 mph100%29.83 "HgN/A
11:00 PM30 °FLight snow. Mostly cloudy.10 mph100%29.83 "Hg6 mi
10:30 PM30 °FChilly.8 mph93%29.83 "Hg1 mi
10:00 PM30 °FLight snow. Mostly cloudy.8 mph93%29.83 "HgN/A
Weather by CustomWeather, © 2015

See weather overviewHow to use our weather pages